Location: Lhota
(50.0887°N, 14.0116°E)
Time: 00:30:20
(UTC+00:00)

Okean-O - Pass Details

Date: 19 May 2025
Orbit: 628 x 631 km, 98.0° (Epoch: 22 June)

Event Time Altitude Azimuth Distance (km) Brightness Sun altitude
Exits shadow 20:03:46 - 181° (S) 2,436 5.2 -9.8°
Reaches altitude 10° 20:04:50 10° 184° (S) 2,009 4.8 -9.9°
Maximum altitude 20:09:05 50° 260° (W) 805 3.4 -10.4°
Drops below altitude 10° 20:13:23 10° 337° (NNW) 2,025 6.6 -10.8°
Sets 20:15:39 0° 342° (NNW) 2,937 7.5 -11.1°
